Time,TemperatureF,DewpointF,PressureIn,WindDirection,WindDirectionDegrees,WindSpeedMPH,WindSpeedGustMPH,Humidity,HourlyPrecipIn,Conditions,Clouds,dailyrainin,SoftwareType,DateUTC
2013-01-20 00:04:00,40.0,32.0,29.86,SW,217,5.0,10.0,73,0.00,,,0.02,,2013-01-20 05:04:00,
2013-01-20 00:12:00,40.0,32.0,29.86,SW,217,5.0,10.0,73,0.00,,,0.02,,2013-01-20 05:12:00,
2013-01-20 00:23:00,40.0,32.0,29.86,SSE,148,5.0,10.0,73,0.00,,,0.02,,2013-01-20 05:23:00,
2013-01-20 00:33:00,40.0,32.0,29.85,SSE,158,5.0,12.0,73,0.00,,,0.02,,2013-01-20 05:33:00,
2013-01-20 00:43:00,40.0,32.0,29.85,SSE,158,5.0,12.0,73,0.00,,,0.02,,2013-01-20 05:43:00,
2013-01-20 00:53:00,41.0,33.0,29.84,SE,128,4.0,11.0,72,0.00,,,0.02,,2013-01-20 05:53:00,
2013-01-20 01:02:00,41.0,33.0,29.83,SSE,159,5.0,9.0,72,0.00,,,0.02,,2013-01-20 06:02:00,
2013-01-20 01:12:00,41.0,33.0,29.83,SSE,159,5.0,9.0,72,0.00,,,0.02,,2013-01-20 06:12:00,
2013-01-20 01:22:00,41.0,32.0,29.82,SSW,210,7.0,12.0,71,0.00,,,0.02,,2013-01-20 06:22:00,
2013-01-20 01:33:00,41.0,32.0,29.81,South,172,5.0,12.0,71,0.00,,,0.02,,2013-01-20 06:33:00,
2013-01-20 01:43:00,41.0,32.0,29.81,South,172,5.0,12.0,71,0.00,,,0.02,,2013-01-20 06:43:00,
2013-01-20 01:53:00,41.0,32.0,29.81,SSE,159,6.0,11.0,71,0.00,,,0.02,,2013-01-20 06:53:00,
2013-01-20 02:02:00,42.0,33.0,29.81,SSE,162,4.0,10.0,71,0.00,,,0.02,,2013-01-20 07:02:00,
2013-01-20 02:12:00,42.0,33.0,29.81,SSE,162,4.0,10.0,71,0.00,,,0.02,,2013-01-20 07:12:00,
2013-01-20 02:22:00,42.0,33.0,29.80,SSE,150,4.0,11.0,70,0.00,,,0.02,,2013-01-20 07:22:00,
2013-01-20 02:32:00,42.0,33.0,29.80,SW,222,4.0,15.0,70,0.00,,,0.02,,2013-01-20 07:32:00,
2013-01-20 02:42:00,42.0,33.0,29.80,SW,222,4.0,15.0,70,0.00,,,0.02,,2013-01-20 07:42:00,
2013-01-20 02:52:00,42.0,33.0,29.79,South,172,6.0,10.0,69,0.00,,,0.02,,2013-01-20 07:52:00,
2013-01-20 03:02:00,42.0,32.0,29.79,South,176,6.0,11.0,68,0.00,,,0.02,,2013-01-20 08:02:00,
2013-01-20 03:12:00,42.0,32.0,29.79,South,176,6.0,11.0,68,0.00,,,0.02,,2013-01-20 08:12:00,
2013-01-20 03:22:00,42.0,32.0,29.78,SE,142,4.0,9.0,68,0.00,,,0.02,,2013-01-20 08:22:00,
2013-01-20 03:32:00,42.0,32.0,29.76,SSW,211,3.0,10.0,68,0.00,,,0.02,,2013-01-20 08:32:00,
2013-01-20 03:42:00,42.0,32.0,29.76,SSW,211,3.0,10.0,68,0.00,,,0.02,,2013-01-20 08:42:00,
2013-01-20 03:53:00,42.0,32.0,29.75,SE,146,4.0,11.0,68,0.00,,,0.02,,2013-01-20 08:53:00,
2013-01-20 04:02:00,41.0,32.0,29.75,South,177,3.0,8.0,69,0.00,,,0.02,,2013-01-20 09:02:00,
2013-01-20 04:12:00,41.0,32.0,29.75,South,177,3.0,8.0,69,0.00,,,0.02,,2013-01-20 09:12:00,
2013-01-20 04:22:00,41.0,32.0,29.74,SSE,166,4.0,9.0,69,0.00,,,0.02,,2013-01-20 09:22:00,
2013-01-20 04:33:00,41.0,32.0,29.72,SW,217,5.0,8.0,70,0.00,,,0.02,,2013-01-20 09:33:00,
2013-01-20 04:42:00,41.0,32.0,29.72,SW,217,5.0,8.0,70,0.00,,,0.02,,2013-01-20 09:42:00,
2013-01-20 04:53:00,41.0,32.0,29.72,SSW,193,4.0,10.0,70,0.00,,,0.02,,2013-01-20 09:53:00,
2013-01-20 05:02:00,41.0,32.0,29.71,SW,218,6.0,13.0,71,0.00,,,0.02,,2013-01-20 10:02:00,
2013-01-20 05:12:00,41.0,32.0,29.71,SW,218,6.0,13.0,71,0.00,,,0.02,,2013-01-20 10:12:00,
2013-01-20 05:23:00,41.0,33.0,29.70,SSW,201,6.0,12.0,72,0.00,,,0.02,,2013-01-20 10:23:00,
2013-01-20 05:32:00,41.0,33.0,29.70,SW,219,6.0,12.0,72,0.00,,,0.02,,2013-01-20 10:32:00,
2013-01-20 05:42:00,41.0,33.0,29.70,SW,219,6.0,12.0,72,0.00,,,0.02,,2013-01-20 10:42:00,
2013-01-20 05:53:00,41.0,33.0,29.68,South,181,6.0,13.0,73,0.00,,,0.02,,2013-01-20 10:53:00,
2013-01-20 06:02:00,41.0,33.0,29.67,South,181,6.0,13.0,73,0.00,,,0.02,,2013-01-20 11:02:00,
2013-01-20 06:12:00,41.0,33.0,29.67,South,181,6.0,13.0,73,0.00,,,0.02,,2013-01-20 11:12:00,
2013-01-20 06:22:00,41.0,33.0,29.66,SSW,197,6.0,12.0,74,0.00,,,0.02,,2013-01-20 11:22:00,
2013-01-20 06:33:00,41.0,33.0,29.65,South,180,5.0,11.0,74,0.00,,,0.02,,2013-01-20 11:33:00,
2013-01-20 06:43:00,41.0,33.0,29.65,South,180,5.0,11.0,74,0.00,,,0.02,,2013-01-20 11:43:00,
2013-01-20 06:54:00,40.0,32.0,29.64,South,190,4.0,11.0,74,0.00,,,0.02,,2013-01-20 11:54:00,
2013-01-20 07:03:00,40.0,32.0,29.64,SSE,147,6.0,13.0,74,0.00,,,0.02,,2013-01-20 12:03:00,
2013-01-20 07:12:00,40.0,32.0,29.64,SSE,147,6.0,13.0,74,0.00,,,0.02,,2013-01-20 12:12:00,
2013-01-20 07:23:00,40.0,32.0,29.63,SW,215,6.0,13.0,73,0.00,,,0.02,,2013-01-20 12:23:00,
2013-01-20 07:33:00,40.0,32.0,29.63,SSE,157,7.0,14.0,73,0.00,,,0.02,,2013-01-20 12:33:00,
2013-01-20 07:43:00,40.0,32.0,29.63,SSE,157,7.0,14.0,73,0.00,,,0.02,,2013-01-20 12:43:00,
2013-01-20 07:53:00,41.0,33.0,29.62,SSE,167,8.0,15.0,73,0.00,,,0.02,,2013-01-20 12:53:00,
2013-01-20 08:03:00,41.0,33.0,29.61,SSW,193,8.0,15.0,72,0.00,,,0.02,,2013-01-20 13:03:00,
2013-01-20 08:12:00,41.0,33.0,29.61,SSW,193,8.0,15.0,72,0.00,,,0.02,,2013-01-20 13:12:00,
2013-01-20 08:23:00,41.0,32.0,29.60,SSE,147,7.0,14.0,71,0.00,,,0.02,,2013-01-20 13:23:00,
2013-01-20 08:33:00,42.0,33.0,29.59,SSW,212,9.0,20.0,69,0.00,,,0.02,,2013-01-20 13:33:00,
2013-01-20 08:43:00,42.0,33.0,29.59,SSW,212,9.0,20.0,69,0.00,,,0.02,,2013-01-20 13:43:00,
2013-01-20 08:53:00,42.0,32.0,29.59,WSW,256,9.0,15.0,68,0.00,,,0.02,,2013-01-20 13:53:00,
2013-01-20 09:02:00,43.0,32.0,29.59,SSE,153,11.0,19.0,66,0.00,,,0.02,,2013-01-20 14:02:00,
2013-01-20 09:12:00,43.0,32.0,29.59,SSE,153,11.0,19.0,66,0.00,,,0.02,,2013-01-20 14:12:00,
2013-01-20 09:23:00,44.0,33.0,29.59,SE,138,9.0,17.0,64,0.00,,,0.02,,2013-01-20 14:23:00,
2013-01-20 09:33:00,44.0,32.0,29.59,SW,236,7.0,21.0,62,0.00,,,0.02,,2013-01-20 14:33:00,
2013-01-20 09:43:00,44.0,32.0,29.59,SW,236,7.0,21.0,62,0.00,,,0.02,,2013-01-20 14:43:00,
2013-01-20 09:53:00,45.0,32.0,29.59,East,90,9.0,20.0,59,0.00,,,0.02,,2013-01-20 14:53:00,
2013-01-20 10:03:00,46.0,32.0,29.58,South,175,11.0,20.0,57,0.00,,,0.02,,2013-01-20 15:03:00,
2013-01-20 10:12:00,46.0,32.0,29.58,South,175,11.0,20.0,57,0.00,,,0.02,,2013-01-20 15:12:00,
2013-01-20 10:23:00,47.0,31.0,29.57,SSE,167,10.0,21.0,54,0.00,,,0.02,,2013-01-20 15:23:00,
2013-01-20 10:33:00,49.0,31.0,29.57,South,191,16.0,25.0,50,0.00,,,0.02,,2013-01-20 15:33:00,
2013-01-20 10:43:00,49.0,31.0,29.57,South,191,16.0,25.0,50,0.00,,,0.02,,2013-01-20 15:43:00,
2013-01-20 10:53:00,50.0,31.0,29.56,SSE,165,13.0,29.0,48,0.00,,,0.02,,2013-01-20 15:53:00,
2013-01-20 11:03:00,50.0,31.0,29.56,SSW,207,11.0,34.0,48,0.00,,,0.02,,2013-01-20 16:03:00,
2013-01-20 11:12:00,50.0,31.0,29.56,SSW,207,11.0,34.0,48,0.00,,,0.02,,2013-01-20 16:12:00,
2013-01-20 11:23:00,50.0,31.0,29.54,SW,224,16.0,27.0,48,0.00,,,0.02,,2013-01-20 16:23:00,
2013-01-20 11:33:00,51.0,31.0,29.53,WSW,238,16.0,28.0,46,0.00,,,0.02,,2013-01-20 16:33:00,
2013-01-20 11:43:00,51.0,31.0,29.53,WSW,238,16.0,28.0,46,0.00,,,0.02,,2013-01-20 16:43:00,
2013-01-20 11:53:00,52.0,31.0,29.52,SSW,210,11.0,20.0,45,0.00,,,0.02,,2013-01-20 16:53:00,
2013-01-20 12:03:00,52.0,31.0,29.51,West,269,10.0,22.0,44,0.00,,,0.02,,2013-01-20 17:03:00,
2013-01-20 12:13:00,52.0,31.0,29.51,West,269,10.0,22.0,44,0.00,,,0.02,,2013-01-20 17:13:00,
2013-01-20 12:22:00,53.0,31.0,29.50,SW,232,11.0,26.0,43,0.00,,,0.02,,2013-01-20 17:22:00,
2013-01-20 12:33:00,53.0,30.0,29.50,SSW,205,12.0,27.0,41,0.00,,,0.01,,2013-01-20 17:33:00,
2013-01-20 12:42:00,53.0,30.0,29.50,SSW,205,12.0,27.0,41,0.00,,,0.01,,2013-01-20 17:42:00,
2013-01-20 12:53:00,53.0,30.0,29.52,SW,228,7.0,28.0,41,0.00,,,0.01,,2013-01-20 17:53:00,
2013-01-20 13:03:00,52.0,30.0,29.52,NW,307,11.0,29.0,42,0.00,,,0.01,,2013-01-20 18:03:00,
2013-01-20 13:13:00,52.0,30.0,29.52,NW,307,11.0,29.0,42,0.00,,,0.01,,2013-01-20 18:13:00,
2013-01-20 13:23:00,52.0,30.0,29.52,WSW,245,8.0,19.0,43,0.00,,,0.01,,2013-01-20 18:23:00,
2013-01-20 13:33:00,51.0,29.0,29.52,SW,221,15.0,25.0,43,0.00,,,0.00,,2013-01-20 18:33:00,
2013-01-20 13:43:00,51.0,29.0,29.52,SW,221,15.0,25.0,43,0.00,,,0.00,,2013-01-20 18:43:00,
2013-01-20 13:53:00,51.0,30.0,29.54,WSW,240,16.0,29.0,45,0.00,,,0.00,,2013-01-20 18:53:00,
2013-01-20 14:03:00,50.0,31.0,29.55,WSW,245,8.0,20.0,47,0.00,,,0.00,,2013-01-20 19:03:00,
2013-01-20 14:12:00,50.0,31.0,29.55,WSW,245,8.0,20.0,47,0.00,,,0.00,,2013-01-20 19:12:00,
2013-01-20 14:23:00,48.0,31.0,29.57,WNW,295,7.0,20.0,52,0.00,,,0.00,,2013-01-20 19:23:00,
2013-01-20 14:33:00,46.0,31.0,29.58,WSW,246,10.0,20.0,55,0.00,,,0.00,,2013-01-20 19:33:00,
2013-01-20 14:43:00,46.0,31.0,29.58,WSW,246,10.0,20.0,55,0.00,,,0.00,,2013-01-20 19:43:00,
2013-01-20 14:53:00,45.0,28.0,29.59,West,259,8.0,25.0,52,0.00,,,0.00,,2013-01-20 19:53:00,
2013-01-20 15:03:00,45.0,26.0,29.59,WSW,242,12.0,20.0,47,0.00,,,0.00,,2013-01-20 20:03:00,
2013-01-20 15:12:00,45.0,26.0,29.59,WSW,242,12.0,20.0,47,0.00,,,0.00,,2013-01-20 20:12:00,
2013-01-20 15:23:00,45.0,24.0,29.60,WSW,250,9.0,23.0,43,0.00,,,0.00,,2013-01-20 20:23:00,
2013-01-20 15:33:00,45.0,23.0,29.61,West,262,15.0,25.0,41,0.00,,,0.00,,2013-01-20 20:33:00,
2013-01-20 15:42:00,45.0,23.0,29.61,West,262,15.0,25.0,41,0.00,,,0.00,,2013-01-20 20:42:00,
2013-01-20 15:54:00,46.0,23.0,29.61,WSW,253,6.0,19.0,40,0.00,,,0.00,,2013-01-20 20:54:00,
2013-01-20 16:04:00,46.0,21.0,29.62,West,276,7.0,25.0,36,0.00,,,0.00,,2013-01-20 21:04:00,
2013-01-20 16:13:00,46.0,21.0,29.62,West,276,7.0,25.0,36,0.00,,,0.00,,2013-01-20 21:13:00,
2013-01-20 16:23:00,46.0,21.0,29.63,WSW,253,9.0,19.0,36,0.00,,,0.00,,2013-01-20 21:23:00,
2013-01-20 16:33:00,45.0,20.0,29.64,WSW,242,8.0,15.0,37,0.00,,,0.00,,2013-01-20 21:33:00,
2013-01-20 16:43:00,45.0,20.0,29.64,WSW,242,8.0,15.0,37,0.00,,,0.00,,2013-01-20 21:43:00,
2013-01-20 16:53:00,44.0,16.0,29.65,West,271,7.0,21.0,32,0.00,,,0.00,,2013-01-20 21:53:00,
2013-01-20 17:03:00,43.0,14.0,29.67,NNW,328,8.0,22.0,30,0.00,,,0.00,,2013-01-20 22:03:00,
2013-01-20 17:13:00,43.0,14.0,29.67,NNW,328,8.0,22.0,30,0.00,,,0.00,,2013-01-20 22:13:00,
2013-01-20 17:23:00,43.0,14.0,29.68,WNW,287,10.0,17.0,31,0.00,,,0.00,,2013-01-20 22:23:00,
2013-01-20 17:33:00,42.0,16.0,29.70,NNW,328,10.0,16.0,34,0.00,,,0.00,,2013-01-20 22:33:00,
2013-01-20 17:43:00,42.0,16.0,29.70,NNW,328,10.0,16.0,34,0.00,,,0.00,,2013-01-20 22:43:00,
2013-01-20 17:52:00,41.0,17.0,29.71,WSW,250,11.0,22.0,37,0.00,,,0.00,,2013-01-20 22:52:00,
2013-01-20 18:03:00,40.0,17.0,29.72,WSW,248,10.0,23.0,39,0.00,,,0.00,,2013-01-20 23:03:00,
2013-01-20 18:13:00,40.0,17.0,29.72,WSW,248,10.0,23.0,39,0.00,,,0.00,,2013-01-20 23:13:00,
2013-01-20 18:23:00,39.0,17.0,29.72,SW,218,10.0,24.0,41,0.00,,,0.00,,2013-01-20 23:23:00,
2013-01-20 18:33:00,38.0,17.0,29.74,WSW,256,7.0,23.0,42,0.00,,,0.00,,2013-01-20 23:33:00,
2013-01-20 18:43:00,38.0,17.0,29.74,WSW,256,7.0,23.0,42,0.00,,,0.00,,2013-01-20 23:43:00,
2013-01-20 18:53:00,37.0,17.0,29.74,West,262,4.0,13.0,44,0.00,,,0.00,,2013-01-20 23:53:00,
2013-01-20 19:03:00,37.0,17.0,29.75,NNW,342,8.0,16.0,43,0.00,,,0.00,,2013-01-21 00:03:00,
2013-01-20 19:13:00,37.0,17.0,29.75,NNW,342,8.0,16.0,43,0.00,,,0.00,,2013-01-21 00:13:00,
2013-01-20 19:23:00,36.0,15.0,29.77,WSW,246,11.0,24.0,41,0.00,,,0.00,,2013-01-21 00:23:00,
2013-01-20 19:33:00,35.0,15.0,29.78,NW,314,6.0,22.0,44,0.00,,,0.00,,2013-01-21 00:33:00,
2013-01-20 19:43:00,35.0,15.0,29.78,NW,314,6.0,22.0,44,0.00,,,0.00,,2013-01-21 00:43:00,
2013-01-20 19:54:00,34.0,14.0,29.78,West,265,9.0,19.0,44,0.00,,,0.00,,2013-01-21 00:54:00,
2013-01-20 20:03:00,34.0,14.0,29.79,West,274,10.0,21.0,43,0.00,,,0.00,,2013-01-21 01:03:00,
2013-01-20 20:13:00,34.0,14.0,29.79,West,274,10.0,21.0,43,0.00,,,0.00,,2013-01-21 01:13:00,
2013-01-20 20:23:00,33.0,13.0,29.80,North,5,7.0,21.0,43,0.00,,,0.00,,2013-01-21 01:23:00,
2013-01-20 20:33:00,33.0,13.0,29.81,SW,235,9.0,16.0,43,0.00,,,0.00,,2013-01-21 01:33:00,
2013-01-20 20:43:00,33.0,13.0,29.81,SW,235,9.0,16.0,43,0.00,,,0.00,,2013-01-21 01:43:00,
2013-01-20 20:53:00,32.0,12.0,29.82,WSW,245,9.0,20.0,43,0.00,,,0.00,,2013-01-21 01:53:00,
2013-01-20 21:03:00,32.0,12.0,29.83,WSW,238,7.0,21.0,43,0.00,,,0.00,,2013-01-21 02:03:00,
2013-01-20 21:12:00,32.0,12.0,29.83,WSW,238,7.0,21.0,43,0.00,,,0.00,,2013-01-21 02:12:00,
2013-01-20 21:23:00,31.0,12.0,29.84,WSW,240,6.0,19.0,44,0.00,,,0.00,,2013-01-21 02:23:00,
2013-01-20 21:33:00,31.0,12.0,29.85,WSW,256,5.0,17.0,45,0.00,,,0.00,,2013-01-21 02:33:00,
2013-01-20 21:43:00,31.0,12.0,29.85,WSW,256,5.0,17.0,45,0.00,,,0.00,,2013-01-21 02:43:00,
2013-01-20 21:53:00,31.0,12.0,29.85,WSW,246,6.0,13.0,45,0.00,,,0.00,,2013-01-21 02:53:00,
2013-01-20 22:03:00,30.0,11.0,29.85,South,190,5.0,12.0,45,0.00,,,0.00,,2013-01-21 03:03:00,
2013-01-20 22:13:00,30.0,11.0,29.85,South,190,5.0,12.0,45,0.00,,,0.00,,2013-01-21 03:13:00,
2013-01-20 22:23:00,30.0,11.0,29.86,WSW,240,6.0,15.0,45,0.00,,,0.00,,2013-01-21 03:23:00,
2013-01-20 22:33:00,30.0,12.0,29.87,West,267,3.0,12.0,46,0.00,,,0.00,,2013-01-21 03:33:00,
2013-01-20 22:43:00,30.0,12.0,29.87,West,267,3.0,12.0,46,0.00,,,0.00,,2013-01-21 03:43:00,
2013-01-20 22:54:00,30.0,12.0,29.88,NW,314,3.0,12.0,47,0.00,,,0.00,,2013-01-21 03:54:00,
2013-01-20 23:03:00,29.0,11.0,29.88,WSW,253,6.0,17.0,46,0.00,,,0.00,,2013-01-21 04:03:00,
2013-01-20 23:13:00,29.0,11.0,29.88,WSW,253,6.0,17.0,46,0.00,,,0.00,,2013-01-21 04:13:00,
2013-01-20 23:23:00,29.0,10.0,29.89,WSW,245,5.0,11.0,44,0.00,,,0.00,,2013-01-21 04:23:00,
2013-01-20 23:33:00,29.0,10.0,29.89,NW,317,5.0,10.0,44,0.00,,,0.00,,2013-01-21 04:33:00,
2013-01-20 23:43:00,29.0,10.0,29.89,NW,317,5.0,10.0,44,0.00,,,0.00,,2013-01-21 04:43:00,
2013-01-20 23:53:00,29.0,10.0,29.89,West,276,4.0,12.0,45,0.00,,,0.00,,2013-01-21 04:53:00,